Tracking 31027 objects as of 19-Jul-2025
HD Live streaming from Space Station
objects crossing your sky now

SL-16 DEB

Track SL-16 DEB now!
10-day predictions


NORAD ID: 39301
Int'l Code: 1992-093JS
Perigee: 839.0 km
Apogee: 883.6 km
Inclination: 70.9 °
Period: 102.0 minutes
Semi major axis: 7232 km
RCS: 0.0003 m2 (small)
Launch date: December 25, 1992
Source: Commonwealth of Independent States (former USSR) (CIS)
Launch site: TYURATAM MISSILE AND SPACE COMPLEX (TTMTR)

Note: This is SATELLITE DEBRIS
Your satellite tracking list
FENGYUN 1C DEB
Track 1 satellite(s)




NASA's NSSDC Master Catalog

Two Line Element Set (TLE):
1 39301U 92093JS  25179.81395661  .00000241  00000-0  15865-3 0  9997
2 39301  70.8762 206.4037 0030862  95.4788 264.9853 14.11515651611667
Source of the keplerian elements: AFSPC